Location: Hochstatterhof
(48.7256°N, 10.3487°E)
Time: 02:00:14
(UTC+00:00)

Meteor 1-14 Rocket - Pass Details

Date: 26 September 2023
Orbit: 833 x 919 km, 81.3° (Epoch: 04 December)

Event Time Altitude Azimuth Distance (km) Brightness Sun altitude
Rises 03:56:00 0° 345° (NNW) 3,557 7.4 -13.0°
Reaches altitude 10° 03:58:31 10° 341° (NNW) 2,618 6.7 -12.6°
Maximum altitude 04:04:21 56° 265° (W) 1,086 4.4 -11.6°
Drops below altitude 10° 04:10:09 10° 189° (S) 2,605 6.6 -10.7°
Sets 04:12:39 0° 185° (S) 3,538 7.3 -10.3°
